EW4214 Weather Reports


Display with metric or nautical units.
time (UTC)temp
F
wind
direction
speed
MPH
gust
MPH
rain 1hr
in
rain 24hr
in
rain mn
in
humidity
%
barometer
mb
20260505124906 80 194 0.0 2.0 0.00 0.00 0.00 53 1008.1
20260505123905 80 193 0.0 2.0 0.00 0.00 0.00 53 1008.0
20260505123349 81 209 0.0 2.0 0.00 0.00 0.00 48 1007.6
20260505121904 81 179 0.0 0.0 0.00 0.00 0.00 48 1007.6
20260505120904 82 179 0.0 0.0 0.00 0.00 0.00 45 1007.2
20260505115904 82 179 0.0 1.0 0.00 0.00 0.00 46 1007.0
20260505114903 83 162 0.0 2.0 0.00 0.00 0.00 44 1006.9
20260505113905 82 168 0.0 1.0 0.00 0.00 0.00 46 1006.7
20260505113355 83 167 0.0 1.0 0.00 0.00 0.00 44 1006.5
20260505111901 83 163 0.0 2.0 0.00 0.00 0.00 46 1006.4
20260505110902 85 168 0.0 2.0 0.00 0.00 0.00 43 1006.3
20260505110344 87 152 2.0 4.0 0.00 0.00 0.00 38 1006.1
20260505101028 88 134 1.0 3.0 0.00 0.00 0.00 38 1005.8
20260505100027 89 181 0.0 2.0 0.00 0.00 0.00 37 1005.7
20260505095025 90 178 1.0 3.0 0.00 0.00 0.00 34 1005.6
20260505094532 90 169 1.0 3.0 0.00 0.00 0.00 37 1005.6
20260505094319 92 158 1.0 4.0 0.00 0.00 0.00 33 1005.7
20260505093316 90 182 0.0 6.0 0.00 0.00 0.00 36 1005.6
20260505091007 91 249 1.0 3.0 0.00 0.00 0.00 34 1005.7
20260505090006 92 189 0.0 4.0 0.00 0.00 0.00 34 1006.0
20260505085512 92 173 0.0 7.0 0.00 0.00 0.00 33 1006.1
20260505084000 93 63 2.0 2.0 0.00 0.00 0.00 33 1006.5
20260505082953 94 182 0.0 3.0 0.00 0.00 0.00 31 1006.6
20260505081952 94 142 2.0 3.0 0.00 0.00 0.00 33 1006.4
20260505080951 94 204 0.0 3.0 0.00 0.00 0.00 32 1006.5
20260505075948 93 130 1.0 4.0 0.00 0.00 0.00 33 1006.7
20260505075452 93 236 1.0 3.0 0.00 0.00 0.00 32 1006.7
20260505073941 92 137 0.0 4.0 0.00 0.00 0.00 34 1006.9
20260505072935 92 192 0.0 2.0 0.00 0.00 0.00 33 1007.1
20260505071930 92 227 2.0 3.0 0.00 0.00 0.00 33 1007.3
20260505070926 93 136 2.0 3.0 0.00 0.00 0.00 33 1007.6
20260505065922 93 165 0.0 3.0 0.00 0.00 0.00 32 1007.7
20260505064919 93 104 2.0 4.0 0.00 0.00 0.00 32 1008.0
20260505063911 94 138 2.0 4.0 0.00 0.00 0.00 32 1008.3
20260505062908 93 191 2.0 4.0 0.00 0.00 0.00 33 1008.6
20260505061908 92 120 2.0 7.0 0.00 0.00 0.00 34 1008.8
20260505061359 92 176 0.0 6.0 0.00 0.00 0.00 33 1009.0
20260505060357 91 248 2.0 6.0 0.00 0.00 0.00 35 1009.3
20260505054907 92 146 1.0 3.0 0.00 0.00 0.00 34 1009.4
20260505053905 92 118 2.0 4.0 0.00 0.00 0.00 34 1009.6
20260505053356 91 192 0.0 4.0 0.00 0.00 0.00 35 1009.7
20260505051903 90 188 1.0 3.0 0.00 0.00 0.00 36 1010.1
20260505050905 90 157 1.0 4.0 0.00 0.00 0.00 37 1010.1
20260505041341 87 151 1.0 3.0 0.00 0.00 0.00 40 1011.0
20260505035904 87 207 1.0 3.0 0.00 0.00 0.00 40 1011.1
20260505034901 86 186 0.0 3.0 0.00 0.00 0.00 41 1011.2
20260505033901 85 310 2.0 3.0 0.00 0.00 0.00 43 1011.4
20260505032901 85 228 1.0 3.0 0.00 0.00 0.00 43 1011.3
20260505032354 83 199 1.0 4.0 0.00 0.00 0.00 45 1011.4
20260505030901 83 216 1.0 3.0 0.00 0.00 0.00 45 1011.5
20260505030344 82 244 1.0 3.0 0.00 0.00 0.00 46 1011.6
20260505024901 81 135 0.0 2.0 0.00 0.00 0.00 47 1011.7
20260505024340 80 180 0.0 2.0 0.00 0.00 0.00 49 1011.9
20260505023345 79 191 0.0 2.0 0.00 0.00 0.00 49 1011.9
20260505022344 78 203 0.0 2.0 0.00 0.00 0.00 51 1011.8
20260505020901 78 229 3.0 3.0 0.00 0.00 0.00 50 1011.8
20260505015901 77 197 0.0 4.0 0.00 0.00 0.00 50 1011.7
20260505014901 77 177 0.0 3.0 0.00 0.00 0.00 51 1011.6
20260505013901 76 332 1.0 4.0 0.00 0.00 0.00 52 1011.5
20260505012901 76 226 1.0 6.0 0.00 0.00 0.00 52 1011.4
20260505012342 75 121 1.0 2.0 0.00 0.00 0.00 53 1011.4
20260505010900 74 271 2.0 3.0 0.00 0.00 0.00 53 1011.3
20260505005900 74 209 0.0 3.0 0.00 0.00 0.00 54 1011.1
20260505005347 73 148 1.0 2.0 0.00 0.00 0.00 54 1011.0
20260505003901 73 193 0.0 2.0 0.00 0.00 0.00 56 1010.8
20260505002900 72 161 0.0 1.0 0.00 0.00 0.00 57 1010.7
20260505002339 72 189 0.0 0.0 0.00 0.00 0.00 58 1010.7
20260505001356 71 175 0.0 0.0 0.00 0.00 0.00 58 1010.6
20260505000344 71 178 0.0 0.0 0.00 0.00 0.00 60 1010.4
20260504234902 70 178 0.0 0.0 0.00 0.00 0.00 60 1010.3
20260504234350 69 188 0.0 0.0 0.00 0.00 0.00 60 1009.9
20260504232901 69 196 0.0 0.0 0.00 0.00 0.00 60 1009.8
20260504231901 69 203 0.0 0.0 0.00 0.00 0.00 61 1009.6
20260504230900 69 209 0.0 0.0 0.00 0.00 0.00 61 1009.5
20260504225900 69 211 0.0 0.0 0.00 0.00 0.00 61 1009.4
20260504225035 69 210 0.0 1.0 0.00 0.00 0.00 61 1009.2
20260504224031 68 209 0.0 0.0 0.00 0.00 0.00 61 1009.3
20260504223027 69 203 0.0 1.0 0.00 0.00 0.00 61 1009.1
20260504222025 68 212 0.0 1.0 0.00 0.00 0.00 61 1009.0
20260504221024 69 207 0.0 1.0 0.00 0.00 0.00 60 1009.1
20260504220022 68 199 0.0 0.0 0.00 0.00 0.00 61 1009.1
20260504215019 69 196 0.0 0.0 0.00 0.00 0.00 60 1009.1
20260504214013 69 187 0.0 0.0 0.00 0.00 0.00 60 1009.2
20260504213009 69 198 0.0 0.0 0.00 0.00 0.00 60 1009.5
20260504212007 69 195 0.0 0.0 0.00 0.00 0.00 60 1009.5
20260504211510 69 195 0.0 1.0 0.00 0.00 0.00 60 1009.6
20260504210503 69 192 0.0 1.0 0.00 0.00 0.00 60 1009.8
20260504210253 69 189 0.0 0.0 0.00 0.00 0.00 60 1009.8
20260504203950 69 173 1.0 2.0 0.00 0.00 0.00 60 1010.1
20260504203453 69 184 0.0 3.0 0.00 0.00 0.00 60 1010.1
20260504201944 69 169 1.0 4.0 0.00 0.00 0.00 62 1010.3
20260504200939 69 129 2.0 6.0 0.00 0.00 0.00 63 1010.3
20260504195937 69 178 0.0 3.0 0.00 0.00 0.00 63 1010.3
20260504194934 69 168 0.0 2.0 0.00 0.00 0.00 63 1010.3
20260504193932 69 169 0.0 0.0 0.00 0.00 0.00 63 1010.3
20260504192926 70 181 0.0 0.0 0.00 0.00 0.00 62 1010.1
20260504191924 69 182 0.0 0.0 0.00 0.00 0.00 62 1010.0
20260504190919 69 180 0.0 1.0 0.00 0.00 0.00 62 1009.9
20260504190414 70 170 0.0 2.0 0.00 0.00 0.00 61 1010.0
20260504184926 70 144 1.0 3.0 0.00 0.00 0.00 61 1010.4
20260504184917 70 177 0.0 3.0 0.00 0.00 0.00 61 1010.1
20260504182912 70 148 0.0 3.0 0.00 0.00 0.00 61 1010.5
20260504181908 70 123 1.0 7.0 0.00 0.00 0.00 61 1010.9
20260504180910 70 165 0.0 4.0 0.00 0.00 0.00 61 1010.8
20260504180410 70 152 0.0 2.0 0.00 0.00 0.00 61 1011.0
20260504174903 70 153 1.0 4.0 0.00 0.00 0.00 63 1011.5
20260504173903 71 98 1.0 6.0 0.00 0.00 0.00 61 1011.5
20260504172903 70 169 0.0 10.0 0.00 0.00 0.00 61 1011.6
20260504171902 71 101 2.0 13.0 0.00 0.00 0.00 61 1012.1
20260504171341 70 105 4.0 14.0 0.00 0.00 0.00 62 1012.5
20260504150902 72 187 0.0 0.0 0.00 0.00 0.00 61 1010.8
20260504140901 73 191 0.0 0.0 0.00 0.00 0.00 61 1010.4